EW4438 Weather Reports


time (UTC)temp
C
wind
direction
speed
KPH
gust
KPH
rain 1hr
cm
rain 24hr
cm
rain mn
cm
humidity
%
barometer
mb
20260507095457 12 315 6.4 9.7 0.00 0.00 0.00 79 1029.0
20260507094444 12 335 4.8 6.4 0.00 0.00 0.00 79 1029.0
20260507093443 12 336 3.2 4.8 0.00 0.00 0.00 78 1029.0
20260507092442 12 315 4.8 6.4 0.00 0.00 0.00 78 1029.0
20260507091442 12 331 4.8 6.4 0.00 0.00 0.00 78 1029.3
20260507090459 12 337 6.4 9.7 0.00 0.00 0.00 77 1029.3
20260507085540 12 337 4.8 6.4 0.00 0.00 0.00 77 1029.3
20260507084556 12 322 4.8 8.0 0.00 0.00 0.00 77 1029.3
20260507083540 12 337 4.8 9.7 0.00 0.00 0.00 76 1029.0
20260507082542 12 337 3.2 8.0 0.00 0.00 0.00 76 1029.3
20260507080657 12 337 6.4 8.0 0.00 0.00 0.00 76 1029.0
20260507075644 12 351 4.8 9.7 0.00 0.00 0.00 76 1029.3
20260507074643 12 351 6.4 9.7 0.00 0.00 0.00 77 1029.3
20260507073641 12 337 4.8 8.0 0.00 0.00 0.00 78 1029.3
20260507072642 12 337 4.8 6.4 0.00 0.00 0.00 79 1029.0
20260507072558 12 337 4.8 6.4 0.00 0.00 0.00 79 1029.0
20260507071542 12 337 3.2 6.4 0.00 0.00 0.00 80 1029.0
20260507070641 12 337 6.4 8.0 0.00 0.00 0.00 80 1029.0
20260507064643 13 360 6.4 9.7 0.00 0.00 0.00 80 1029.0
20260507063657 13 304 6.4 9.7 0.00 0.00 0.00 80 1029.0
20260507062644 13 337 4.8 6.4 0.00 0.00 0.00 80 1029.0
20260507061643 13 315 4.8 8.0 0.00 0.00 0.00 80 1029.0
20260507055756 13 305 4.8 6.4 0.00 0.00 0.00 81 1029.0
20260507054843 13 302 8.0 14.5 0.00 0.00 0.00 81 1029.0
20260507053842 13 337 4.8 6.4 0.00 0.00 0.00 81 1029.0
20260507052942 13 337 6.4 8.0 0.00 0.00 0.00 80 1029.0
20260507051941 13 356 4.8 8.0 0.00 0.00 0.00 79 1029.0
20260507045042 13 360 1.6 6.4 0.00 0.00 0.00 78 1029.0
20260507044044 13 346 6.4 9.7 0.00 0.00 0.00 77 1029.0
20260507043143 13 353 8.0 12.9 0.00 0.00 0.00 77 1029.0
20260507042241 13 360 6.4 8.0 0.00 0.00 0.00 76 1029.0
20260507041257 14 352 4.8 8.0 0.00 0.00 0.00 76 1028.6
20260507040341 14 349 9.7 14.5 0.00 0.00 0.00 76 1028.3
20260507035344 14 351 8.0 12.9 0.00 0.00 0.00 75 1028.3
20260507033342 15 337 8.0 11.3 0.00 0.00 0.00 75 1027.9
20260507032342 15 337 8.0 11.3 0.00 0.00 0.00 75 1027.9
20260507030442 15 360 6.4 9.7 0.00 0.00 0.00 74 1027.6
20260507025443 15 360 6.4 9.7 0.00 0.00 0.00 74 1027.6
20260507023442 16 360 4.8 8.0 0.00 0.00 0.00 73 1027.2
20260507022443 16 360 4.8 8.0 0.00 0.00 0.00 71 1027.2
20260507020543 16 360 9.7 11.3 0.00 0.00 0.00 68 1027.2
20260507015544 17 356 4.8 9.7 0.00 0.00 0.00 68 1027.2
20260507014557 17 360 6.4 9.7 0.00 0.00 0.00 67 1026.9
20260507013643 17 360 9.7 12.9 0.00 0.00 0.00 67 1026.9
20260507012742 18 360 8.0 12.9 0.00 0.00 0.00 66 1026.9
20260507010743 18 341 8.0 9.7 0.00 0.00 0.00 64 1026.9
20260507005743 18 337 8.0 9.7 0.00 0.00 0.00 63 1026.9
20260507003842 19 337 6.4 9.7 0.00 0.00 0.00 62 1026.6
20260507002842 19 360 4.8 6.4 0.00 0.00 0.00 63 1026.6
20260507001842 20 360 0.0 1.6 0.00 0.00 0.00 63 1026.6
20260507000900 19 360 0.0 4.8 0.00 0.00 0.00 61 1026.6
20260506235844 20 337 4.8 8.0 0.00 0.00 0.00 60 1026.6
20260506233842 20 337 4.8 6.4 0.00 0.00 0.00 57 1026.3
20260506231940 20 360 0.0 0.0 0.00 0.00 0.00 59 1026.6
20260506230957 20 22 0.0 0.0 0.00 0.00 0.00 58 1026.6
20260506230043 21 73 0.0 0.0 0.00 0.00 0.00 58 1026.6
20260506225941 21 90 0.0 0.0 0.00 0.00 0.00 58 1026.6
20260506224942 21 311 0.0 0.0 0.00 0.00 0.00 56 1026.6
20260506224041 22 231 0.0 0.0 0.00 0.00 0.00 57 1026.9
20260506223042 23 180 0.0 0.0 0.00 0.00 0.00 59 1026.9
20260506222043 19 45 0.0 4.8 0.00 0.00 0.00 61 1026.9
20260506215043 20 308 0.0 0.0 0.00 0.00 0.00 52 1026.9
20260506214043 23 93 0.0 0.0 0.00 0.00 0.00 55 1027.2
20260506213142 20 154 1.6 6.4 0.00 0.00 0.00 53 1027.2
20260506212141 20 103 1.6 4.8 0.00 0.00 0.00 52 1027.6
20260506211144 20 180 3.2 6.4 0.00 0.00 0.00 60 1027.6
20260506205243 18 337 0.0 0.0 0.00 0.00 0.00 65 1027.9
20260506204340 18 293 0.0 0.0 0.00 0.00 0.00 66 1027.9
20260506203343 18 337 0.0 0.0 0.00 0.00 0.00 66 1027.9
20260506202441 17 337 3.2 4.8 0.00 0.00 0.00 67 1027.9
20260506201442 18 292 0.0 0.0 0.00 0.00 0.00 70 1028.3
20260506200442 17 360 0.0 0.0 0.00 0.00 0.00 72 1028.3
20260506194441 16 360 4.8 8.0 0.00 0.00 0.00 76 1028.6
20260506193443 16 360 0.0 4.8 0.00 0.00 0.00 75 1028.3
20260506192442 16 360 0.0 0.0 0.00 0.00 0.00 75 1028.3
20260506190544 16 22 0.0 0.0 0.00 0.00 0.00 74 1028.3
20260506185544 16 341 0.0 0.0 0.00 0.00 0.00 73 1028.3
20260506184542 16 337 3.2 6.4 0.00 0.00 0.00 73 1028.3
20260506184443 16 337 4.8 6.4 0.00 0.00 0.00 73 1028.3
20260506183542 16 337 0.0 0.0 0.00 0.00 0.00 73 1028.3
20260506180641 16 153 0.0 0.0 0.00 0.00 0.00 75 1028.3
20260506180543 16 180 0.0 1.6 0.00 0.00 0.00 76 1028.3
20260506180442 16 180 0.0 3.2 0.00 0.00 0.00 76 1028.3
20260506175444 15 270 0.0 0.0 0.00 0.00 0.00 75 1028.3
20260506174541 15 270 0.0 0.0 0.00 0.00 0.00 74 1028.3
20260506172542 16 270 6.4 9.7 0.00 0.00 0.00 75 1027.9
20260506171641 15 22 0.0 0.0 0.00 0.00 0.00 76 1028.0
20260506170642 15 360 1.6 4.8 0.00 0.00 0.00 78 1028.3
20260506165741 15 320 3.2 6.4 0.00 0.00 0.00 78 1028.3
20260506164743 15 337 4.8 6.4 0.00 0.00 0.00 78 1028.3
20260506163744 14 337 3.2 4.8 0.00 0.00 0.00 78 1028.3
20260506162743 15 22 0.0 0.0 0.00 0.00 0.00 76 1028.3
20260506161743 15 22 0.0 0.0 0.00 0.00 0.00 76 1027.9
20260506160744 15 22 1.6 4.8 0.00 0.00 0.00 76 1028.3
20260506155742 15 45 0.0 0.0 0.00 0.00 0.00 75 1027.6
20260506154742 15 112 0.0 0.0 0.00 0.00 0.00 77 1027.6
20260506153758 14 112 0.0 0.0 0.00 0.00 0.00 83 1027.6
20260506152842 13 303 1.6 4.8 0.00 0.00 0.00 86 1028.3
20260506151941 13 344 1.6 8.0 0.00 0.00 0.00 86 1028.3
20260506150943 13 360 3.2 6.4 0.00 0.00 0.00 86 1028.3
20260506145942 13 315 3.2 6.4 0.00 0.00 0.00 87 1028.3
20260506144943 13 360 1.6 4.8 0.00 0.00 0.00 88 1027.9
20260506143943 13 360 3.2 4.8 0.00 0.00 0.00 88 1028.3
20260506142942 13 337 0.0 4.8 0.00 0.00 0.00 87 1027.9
20260506141957 13 292 0.0 0.0 0.00 0.00 0.00 88 1027.6
20260506135942 13 292 1.6 6.4 0.00 0.00 0.00 88 1027.6
20260506134942 13 304 0.0 0.0 0.00 0.00 0.00 89 1027.6
20260506133943 13 315 0.0 0.0 0.00 0.00 0.00 89 1027.2
20260506132941 13 315 0.0 0.0 0.00 0.00 0.00 89 1027.2
20260506130956 13 315 0.0 0.0 0.00 0.00 0.00 89 1026.9
20260506125944 13 315 0.0 0.0 0.00 0.00 0.00 89 1026.9
20260506124042 13 315 0.0 0.0 0.00 0.00 0.00 88 1026.9
20260506122141 13 337 0.0 0.0 0.00 0.00 0.00 88 1026.9
20260506121143 13 337 0.0 0.0 0.00 0.00 0.00 88 1026.9
20260506120143 13 337 0.0 0.0 0.00 0.00 0.00 88 1026.9
20260506115141 13 315 1.6 4.8 0.00 0.00 0.00 88 1026.6
20260506113242 13 360 0.0 0.0 0.00 0.00 0.00 87 1026.6
20260506112341 13 360 0.0 0.0 0.00 0.00 0.00 87 1026.3
20260506111342 13 360 4.8 6.4 0.00 0.00 0.00 86 1026.3
20260506110342 13 337 0.0 0.0 0.00 0.00 0.00 87 1026.3
20260506105341 13 270 3.2 4.8 0.00 0.00 0.00 86 1025.9
20260506104340 13 360 0.0 0.0 0.00 0.00 0.00 86 1025.9
20260506103401 14 360 0.0 0.0 0.00 0.00 0.00 86 1025.6
20260506102442 14 360 0.0 1.6 0.00 0.00 0.00 86 1025.6
20260506100442 14 360 0.0 0.0 0.00 0.00 0.00 85 1025.6